Location: Ballingbuur
(53.0000°N, 5.7667°E)
Time: 20:38:12
(UTC+00:00)

Cosmos 1356 - Pass Details

Date: 20 April 2021
Orbit: 438 x 442 km, 81.1° (Epoch: 13 May)

Event Time Altitude Azimuth Distance (km) Brightness Sun altitude
Rises 19:40:23 0° 346° (NNW) 2,453 7.9 -8.1°
Reaches altitude 10° 19:42:27 10° 347° (NNW) 1,576 6.9 -8.4°
Maximum altitude 19:45:54 87° 77° (ENE) 451 3.3 -8.8°
Drops below altitude 10° 19:49:19 10° 167° (SSE) 1,559 5.7 -9.3°
Enters shadow 19:50:00 - 167° (SSE) 1,851 6.1 -9.3°
